Location: Newark
(46.2350°N, 1.5859°E)
Time: 06:28:35
(UTC+00:00)

ISS - Visible Passes

Search period start: 15 September 2019 00:00
Search period end: 25 September 2019 00:00
Orbit: 411 x 421 km, 51.6° (Epoch: 15 September)

Date Brightness Start Highest point End Pass type
(mag) Time Alt. Az. Time Alt. Az. Time Alt. Az.
15 Sep -2.2 03:32:39 26° SSE 03:32:39 26° SSE 03:34:18 10° SE visible
16 Sep -1.4 04:20:24 11° SSW 04:20:24 11° SSW 04:20:39 10° SSW visible
18 Sep -1.7 19:23:55 10° S 19:24:55 15° S 19:24:55 15° S visible
19 Sep -1.7 18:36:46 10° SSE 18:38:05 12° SE 18:39:16 10° ESE visible
19 Sep -1.7 20:10:59 10° SW 20:12:13 21° SW 20:12:13 21° SW visible
20 Sep -3.5 19:22:41 10° SW 19:25:51 45° SE 19:26:18 42° ESE visible
21 Sep -2.7 18:34:33 10° SSW 18:37:28 28° SE 18:40:10 11° E visible
21 Sep -2.4 20:10:46 10° WSW 20:13:05 38° WNW 20:13:05 38° WNW visible
22 Sep -3.8 19:22:10 10° WSW 19:25:30 80° NNW 19:26:47 35° ENE visible
22 Sep -0.3 20:59:31 10° WNW 20:59:41 11° WNW 20:59:41 11° WNW visible
23 Sep -3.8 18:33:41 10° SW 18:36:59 68° SSE 18:40:17 10° ENE visible
23 Sep -2.1 20:10:46 10° W 20:13:14 32° NW 20:13:14 32° NW visible
24 Sep -2.9 19:22:02 10° W 19:25:15 44° NNW 19:26:40 27° NE visible
24 Sep -0.2 20:59:27 10° WNW 20:59:34 11° WNW 20:59:34 11° WNW visible
